Weather in Sotnikovskoye

Russia / Stavropol Krai     45°00′10″N   43°46′59″E
temp.,
°C
wind,
m/s
gust,
m/s
humid.,
%
clouds,
%
prec.,
mm/h
press.,
hPa
HPBL,
m
9 may, sun
sun900:00+13se496888 0.0 1011202
03:00+10se3675100 0.0 1010112
06:00+12wsw1274100 0.0 1010102
09:00+16nnw5865100 0.0 1009594
12:00+20nw8859100 0.0 10081678
15:00+14wnw91286100 0.4 1011804
18:00+8wnw121889100 2.9 1015913
21:00+7wnw101687100 9.1 10191086
10 may, mon
mon1000:00+7wnw91585100 0.5 10191064
03:00+7wnw8158399 0.5 1020812
06:00+6wnw7148397 0.0 1020718
09:00+11wnw1013574 0.0 10201663
12:00+13wnw10144295 0.0 10182484
15:00+14w10134279 0.0 10172568
18:00+11wnw711655 0.1 10181304
21:00+7sw478160 0.1 1019160
11 may, tue
tue1100:00+6ssw488139 0.0 1018353
03:00+4sw4118793 0.0 1019283
06:00+7s3782100 0.0 1018202
09:00+11sse71061100 0.0 1018896
12:00+15se784877 0.0 10181906
15:00+16se774686 0.0 10182164
18:00+15e475999 0.1 1018572
21:00+12e41263100 0.1 1019417
12 may, wed
wed1200:00+9ese48725 0.0 1019145
03:00+7se347828 0.0 101953
06:00+8ese268157 0.0 1019170
09:00+15ese576712 0.0 10191074
12:00+19ese665113 0.0 10181488
15:00+20ese56458 0.0 10171700
18:00+19ese36560 0.0 1016189
21:00+14e33570 0.0 101636
13 may, thu
thu1300:00+12ese34793 0.0 101664
03:00+11se33905 0.0 101631
06:00+12ese25850 0.0 1017136
09:00+18ese56600 0.0 1017692
12:00+23ese56485 0.0 1016990
15:00+25ese564452 0.0 10151215
18:00+22ese3758100 0.0 1015160
21:00+17ese497034 0.0 1016150